Flag for Germany Weather past 2 weeks in Gladbeck, North Rhine-Westphalia, Germany

Now
60 °F

Passing clouds.


Feels Like: 60 °F
Forecast: 48 / 58 °F
Wind: 3 mph from East

Location: Duesseldorf


UV Index: 0 (Low)

Visibility: 28 mi


Pressure: 29.71 "Hg

Humidity: 48%

Dew point: 40 °F

Location of GladbeckLocation

Historic Weather in Gladbeck

°F

Gladbeck temperature yesterday

Maximum temperature yesterday: 62 °F (at 6:00 PM)
Minimum temperature yesterday: 39 °F (at 7:00 AM)
Average temperature yesterday: 50 °F

Past Weeks' High & Low Weather Summary

 TemperatureHumidityPressure
High72 °F (Apr 20, 2:00 PM)97% (Apr 12, 8:00 AM)30.47 "Hg (Apr 12, 8:00 AM)
Low30 °F (Apr 16, 5:00 AM)26% (Apr 17, 5:00 PM)29.67 "Hg (Apr 20, 6:00 PM)
Average52 °F67%30.09 "Hg
* Reported Apr 5 8:00 PM — Apr 20 8:00 PM, Gladbeck, Weather by CustomWeather, © 2014

Note: Actual official high and low records may vary slightly from our data, if they occured in-between our weather recording intervals... More about our weather records

Advertising

Historic Weather Conditions — Data for Previous 24 hours

 ConditionsComfort  
Time TempWeatherWind HumidityBarometerVisibility
8:00 PM
Apr 20
64 °FPassing clouds.3 mph42%29.69 "Hg28 mi
7:00 PM69 °FPassing clouds.7 mph32%29.67 "Hg28 mi
6:00 PM69 °FScattered clouds.3 mph32%29.67 "Hg28 mi
4:00 PM72 °FScattered clouds.6 mph31%29.68 "Hg28 mi
3:00 PM69 °FScattered clouds.7 mph37%29.69 "Hg25 mi
2:00 PM72 °FScattered clouds.8 mph35%29.70 "Hg19 mi
1:00 PM69 °FPassing clouds.8 mph47%29.72 "Hg14 mi
12:00 PM66 °FPassing clouds.8 mph52%29.74 "Hg14 mi
11:00 AM63 °FPassing clouds.7 mph59%29.76 "Hg12 mi
10:00 AM59 °FPassing clouds.6 mph68%29.78 "Hg10 mi
9:00 AM58 °FPartly sunny.6 mph72%29.79 "Hg9 mi
8:00 AM54 °FOvercast.3 mph80%29.79 "Hg9 mi
7:00 AM53 °FOvercast.3 mph81%29.80 "Hg9 mi
6:00 AM53 °FOvercast.3 mph81%29.80 "Hg9 mi
4:00 AM53 °FClear.7 mph80%29.83 "Hg11 mi
3:00 AM53 °FPassing clouds.8 mph78%29.84 "Hg12 mi
2:00 AM54 °FClear.8 mph74%29.86 "Hg12 mi
1:00 AM54 °FClear.7 mph73%29.88 "Hg16 mi
12:00 AM56 °FClear.7 mph70%29.90 "Hg16 mi
10:00 PM
Apr 19
57 °FPassing clouds.3 mph63%29.92 "Hg16 mi
9:00 PM58 °FPassing clouds.5 mph60%29.93 "Hg19 mi
Weather by CustomWeather, © 2014

See weather overview